Weather in La Ceiba

Honduras     15°46′11″N   86°47′32″W
temp.,
°C
wind,
m/s
gust,
m/s
humid.,
%
clouds,
%
prec.,
mm/h
press.,
hPa
HPBL,
m
21 april, wed
wed2100:00+24s218457 0.1 1013105
03:00+24sw228188 0.0 1012137
06:00+24ssw118033 0.0 1014162
09:00+27n317377 0.0 1015591
12:00+25nw118299 0.3 1014401
15:00+26nne2280100 0.4 1013503
18:00+24e2387100 0.8 1014231
21:00+24ese1286100 0.1 1015192
22 april, thu
thu2200:00+23ssw11868 0.2 1014217
03:00+23s11844 0.0 1013140
06:00+23sse118313 0.0 1015164
09:00+26n21734 0.0 1016593
12:00+25n437335 0.0 1015870
15:00+25ne447381 0.0 1013571
18:00+24ene458311 0.1 1014528
21:00+23ese23869 0.0 1015267
23 april, fri
fri2300:00+23s22826 0.0 1015146
03:00+23s22814 0.0 101397
06:00+23s118090 0.0 1015169
09:00+27n326514 0.0 1015601
12:00+26nne44605 0.0 10141018
15:00+26ne556811 0.0 1011582
18:00+24ene568292 0.0 1011413
21:00+24sse3381100 0.0 1012121
24 april, sat
sat2400:00+24sse3475100 0.0 101199
03:00+23ssw2372100 0.0 1010133
06:00+23sse336970 0.0 1012101
09:00+28ene1253100 0.0 1013467
12:00+28nne44523 0.0 10111024
15:00+27ne55608 0.0 1009446
18:00+25e23766 0.0 1009145
21:00+25ssw336881 0.0 101161
25 april, sun
sun2500:00+25ssw226011 0.0 101048
03:00+24s22577 0.0 101047
06:00+24sse22575 0.0 101268
09:00+27n21555 0.0 1013414
12:00+26n226520 0.0 1013707
15:00+25ne237483 0.0 1011353
18:00+24e238563 0.0 1012294
21:00+24se2383100 0.0 1013181